Location: Bégole
(43.1574°N, 0.3291°E)
Time: 01:36:30
(UTC+00:00)

deb Delta 89 - Pass Details

Date: 26 February 2024
Orbit: 714 x 2021 km, 97.5° (Epoch: 13 April)

Event Time Altitude Azimuth Distance (km) Brightness Sun altitude
Rises 01:56:51 0° 13° (NNE) 5,474 ? -48.8°
Reaches altitude 10° 02:00:15 10° 17° (NNE) 4,483 ? -48.4°
Enters shadow 02:10:15 58° 70° (ENE) 2,186 ? -47.1°
